GSAT0208 (GALILEO 11)

Last updated on Fri Oct 11 2024 00:02:28 GMT+0000 (Coordinated Universal Time)

1 41175U 15079B 24283.93265164 .00000063 00000+0 00000+0 0 9992 2 41175 55.4753 118.1583 0001898 9.9866 350.0898 1.70474023 54707
UTC large
Height (km)
Speed (km/s)
/
Latitude / Longitude
Inclination (degrees)
Orbital Period (minutes)
Azimuth
Elevation
Range (km)
Doppler Factor

Next 0 passes for location: London (51.5072 / 0.1276)

Sorry there are no passes over London.